Regional Weather Roundup
Issued by NWS Goodland, KS

Home | Current Version | Previous Version | Text Only | Print | Product List | Glossary Off
Versions: 1 2 3 4 5 6 7 8 9 10 11 12 13 14 15 16 17 18 19 20 21 22 23 24 25 26 27 28 29 30 31 32 33 34 35 36 37 38 39 40 41 42 43 44 45 46 47 48 49 50

000
ASUS43 KGLD 291959
RWRGLD

GOODLAND FORECAST AREA HOURLY WEATHER ROUNDUP
NATIONAL WEATHER SERVICE GOODLAND KS
200 PM MDT FRI APR 29 2016

...OFFICIAL OBSERVATIONS...

CITY           SKY/WX    TMP DP  RH WIND       PRES   REMARKS
GOODLAND KS    LGT RAIN  38  36  92 NE17      29.87F
HILL CITY KS   LGT RAIN  44  41  89 E26G36    29.87F
IMPERIAL NEB   LGT RAIN  41  38  89 NE14      29.94F
MCCOOK NEB     CLOUDY    43  38  82 E24       29.90F
AKRON CO       LGT SNOW  33  32  96 NE7       29.94F VSB 1
BURLINGTON CO  RAIN      35  32  88 N15       29.87F FOG
LIMON CO       LGT SNOW  33  32  96 N8        29.91S FOG
$$

...UNOFFICIAL OBSERVATIONS...

CITY           SKY/WX    TMP DP  RH WIND       PRES   REMARKS
COLBY KS       CLOUDY    41  41 100 NE22G29   29.87F
GOVE KS          N/A     44  32  63 MISG        N/A
LENORA KS        N/A     42  32  68 MISG        N/A
NORTON KS      DRIZZLE   41  36  81 NE28G46   29.79F
SHARON SPRINGS   N/A     39  37  94 NE25        N/A
KIT CARSON CO    N/A     33  30  90 MISG        N/A
YUMA CO          N/A     37  35  94 E12G18      N/A
$$




USA.gov is the U.S. government's official web portal to all federal, state and local government web resources and services.